• In Uzbekistan
  • List of Countries
  • For 7 days
  • Water Temperature
  • Satellite Maps
  • Weather Map
  • Weather Widgets
  • user-avatar
    Login

    Hourly Weather Banbury

    Today, 18 January, Thursday

    Time Temperature Precipitation Wind Pressure Humidity
    00:00 +7°C° 0.7 mm 10 mps 735 mmHg 89%
    01:00 +7°C° 0.1 mm 11 mps 734 mmHg 86%
    02:00 +7°C° 0.1 mm 11 mps 733 mmHg 82%
    03:00 +7°C° 0.1 mm 12 mps 732 mmHg 78%
    04:00 +5°C° 0 mm 12 mps 734 mmHg 77%
    05:00 +4°C° 0 mm 12 mps 735 mmHg 76%
    06:00 +2°C° 0 mm 11 mps 736 mmHg 75%
    07:00 +2°C° 0 mm 9 mps 737 mmHg 78%
    08:00 +1°C° 0 mm 8 mps 738 mmHg 80%
    09:00 +2°C° 0 mm 6 mps 739 mmHg 82%
    10:00 +3°C° 0.2 mm 6 mps 739 mmHg 80%
    11:00 +4°C° 0.2 mm 7 mps 740 mmHg 77%
    12:00 +4°C° 0.2 mm 7 mps 740 mmHg 74%
    13:00 +4°C° 0.2 mm 7 mps 740 mmHg 73%
    14:00 +4°C° 0.2 mm 7 mps 740 mmHg 73%
    15:00 +3°C° 0.2 mm 7 mps 740 mmHg 73%
    16:00 +3°C° 0.1 mm 6 mps 741 mmHg 75%
    17:00 +2°C° 0.1 mm 5 mps 741 mmHg 78%
    18:00 +1°C° 0.1 mm 5 mps 742 mmHg 80%
    19:00 0°C° 0 mm 5 mps 742 mmHg 81%
    20:00 0°C° 0 mm 5 mps 743 mmHg 81%
    21:00 0°C° 0 mm 4 mps 743 mmHg 82%
    22:00 -1°C° 0 mm 4 mps 744 mmHg 82%
    23:00 -1°C° 0 mm 4 mps 744 mmHg 83%

    Tomorrow, 19 January, Friday

    Time Temperature Precipitation Wind Pressure Humidity
    00:00 -1°C° 0 mm 4 mps 744 mmHg 84%
    01:00 -1°C° 0 mm 4 mps 744 mmHg 84%
    02:00 -2°C° 0 mm 4 mps 744 mmHg 85%
    03:00 -2°C° 0 mm 4 mps 745 mmHg 85%
    04:00 -2°C° 0 mm 4 mps 745 mmHg 85%
    05:00 -2°C° 0 mm 4 mps 745 mmHg 84%
    06:00 -2°C° 0 mm 4 mps 745 mmHg 84%
    07:00 -1°C° 0 mm 4 mps 745 mmHg 82%
    08:00 -1°C° 0 mm 4 mps 745 mmHg 81%
    09:00 -1°C° 0 mm 5 mps 745 mmHg 80%
    10:00 0°C° 0 mm 5 mps 745 mmHg 75%
    11:00 +1°C° 0 mm 6 mps 745 mmHg 70%
    12:00 +2°C° 0 mm 7 mps 745 mmHg 65%
    13:00 +2°C° 0.1 mm 7 mps 745 mmHg 66%
    14:00 +2°C° 0.1 mm 6 mps 745 mmHg 66%
    15:00 +1°C° 0.1 mm 6 mps 745 mmHg 66%
    16:00 +1°C° 0 mm 6 mps 745 mmHg 69%
    17:00 0°C° 0 mm 5 mps 745 mmHg 71%
    18:00 -1°C° 0 mm 5 mps 745 mmHg 74%
    19:00 -1°C° 0 mm 5 mps 746 mmHg 75%
    20:00 -1°C° 0 mm 5 mps 746 mmHg 75%
    21:00 -1°C° 0 mm 5 mps 746 mmHg 76%
    22:00 -2°C° 0 mm 5 mps 746 mmHg 77%
    23:00 -2°C° 0 mm 5 mps 746 mmHg 78%

    Day after tomorrow, 20 January, Saturday

    Time Temperature Precipitation Wind Pressure Humidity
    00:00 -2°C° 0 mm 5 mps 746 mmHg 79%
    01:00 -2°C° 0 mm 4 mps 746 mmHg 80%
    02:00 -2°C° 0 mm 4 mps 746 mmHg 82%
    03:00 -2°C° 0 mm 4 mps 746 mmHg 83%
    04:00 -1°C° 0 mm 3 mps 746 mmHg 84%
    05:00 -2°C° 0 mm 3 mps 746 mmHg 86%
    06:00 -2°C° 0 mm 3 mps 746 mmHg 87%
    07:00 -1°C° 0 mm 2 mps 746 mmHg 86%
    08:00 -1°C° 0 mm 2 mps 746 mmHg 84%
    09:00 +1°C° 0 mm 2 mps 746 mmHg 83%
    10:00 +2°C° 0 mm 2 mps 746 mmHg 79%
    11:00 +3°C° 0 mm 2 mps 747 mmHg 74%
    12:00 +4°C° 0 mm 2 mps 747 mmHg 70%
    13:00 +4°C° 0 mm 2 mps 747 mmHg 71%
    14:00 +4°C° 0 mm 2 mps 747 mmHg 73%
    15:00 +5°C° 0 mm 1 mps 747 mmHg 74%
    16:00 +4°C° 0 mm 1 mps 748 mmHg 77%
    17:00 +3°C° 0 mm 1 mps 748 mmHg 80%
    18:00 +2°C° 0 mm 1 mps 749 mmHg 84%
    19:00 +2°C° 0 mm 1 mps 749 mmHg 83%
    20:00 +3°C° 0 mm 1 mps 749 mmHg 82%
    21:00 +2°C° 0 mm 2 mps 750 mmHg 81%
    22:00 +2°C° 0.1 mm 2 mps 750 mmHg 81%
    23:00 +2°C° 0.1 mm 2 mps 749 mmHg 82%

    21 January, Sunday

    Time Temperature Precipitation Wind Pressure Humidity
    00:00 +1°C° 0.1 mm 3 mps 749 mmHg 83%
    01:00 +1°C° 1.2 mm 3 mps 749 mmHg 86%
    02:00 +1°C° 1.2 mm 4 mps 748 mmHg 88%
    03:00 +1°C° 1.2 mm 5 mps 748 mmHg 91%
    04:00 +1°C° 0.7 mm 4 mps 748 mmHg 93%
    05:00 +3°C° 0.7 mm 4 mps 747 mmHg 95%
    06:00 +3°C° 0.7 mm 4 mps 747 mmHg 97%
    07:00 +5°C° 0.1 mm 5 mps 746 mmHg 96%
    08:00 +6°C° 0.1 mm 5 mps 746 mmHg 96%
    09:00 +8°C° 0.1 mm 6 mps 746 mmHg 96%
    10:00 +9°C° 0.1 mm 6 mps 746 mmHg 94%
    11:00 +9°C° 0.1 mm 7 mps 746 mmHg 92%
    12:00 +10°C° 0.1 mm 8 mps 746 mmHg 91%
    13:00 +10°C° 0.3 mm 8 mps 746 mmHg 91%
    14:00 +10°C° 0.3 mm 7 mps 746 mmHg 91%
    15:00 +10°C° 0.3 mm 7 mps 746 mmHg 91%
    16:00 +10°C° 0 mm 6 mps 746 mmHg 92%
    17:00 +9°C° 0 mm 6 mps 747 mmHg 93%
    18:00 +9°C° 0 mm 5 mps 747 mmHg 93%
    19:00 +8°C° 0 mm 5 mps 748 mmHg 94%
    20:00 +8°C° 0 mm 4 mps 748 mmHg 95%
    21:00 +7°C° 0 mm 4 mps 749 mmHg 95%
    22:00 +8°C° 0 mm 3 mps 749 mmHg 96%
    23:00 +8°C° 0 mm 3 mps 749 mmHg 96%

    22 January, Monday

    Time Temperature Precipitation Wind Pressure Humidity
    00:00 +8°C° 0 mm 2 mps 750 mmHg 96%
    01:00 +8°C° 0 mm 2 mps 750 mmHg 97%
    02:00 +8°C° 0 mm 2 mps 749 mmHg 97%
    03:00 +7°C° 0 mm 2 mps 749 mmHg 97%
    04:00 +8°C° 0.2 mm 3 mps 749 mmHg 97%
    05:00 +9°C° 0.2 mm 3 mps 748 mmHg 97%
    06:00 +8°C° 0.2 mm 4 mps 748 mmHg 97%
    07:00 +9°C° 0.1 mm 5 mps 748 mmHg 95%
    08:00 +10°C° 0.1 mm 6 mps 747 mmHg 93%
    09:00 +10°C° 0.1 mm 7 mps 747 mmHg 91%
    10:00 +10°C° 0.4 mm 8 mps 746 mmHg 90%
    11:00 +11°C° 0.4 mm 8 mps 746 mmHg 89%
    12:00 +11°C° 0.4 mm 9 mps 746 mmHg 88%
    13:00 +11°C° 0 mm 8 mps 746 mmHg 87%
    14:00 +11°C° 0 mm 8 mps 746 mmHg 86%
    15:00 +11°C° 0 mm 8 mps 746 mmHg 85%
    16:00 +10°C° 0 mm 7 mps 746 mmHg 86%
    17:00 +10°C° 0 mm 7 mps 747 mmHg 86%
    18:00 +9°C° 0 mm 7 mps 747 mmHg 87%
    19:00 +9°C° 0 mm 7 mps 748 mmHg 87%
    20:00 +8°C° 0 mm 6 mps 748 mmHg 86%
    21:00 +8°C° 0 mm 6 mps 748 mmHg 85%
    22:00 +8°C° 0 mm 6 mps 748 mmHg 86%
    23:00 +8°C° 0 mm 7 mps 748 mmHg 86%

    23 January, Tuesday

    Time Temperature Precipitation Wind Pressure Humidity
    00:00 +8°C° 0 mm 7 mps 748 mmHg 87%
    01:00 +8°C° 0 mm 7 mps 749 mmHg 87%
    02:00 +8°C° 0 mm 7 mps 749 mmHg 88%
    03:00 +8°C° 0 mm 7 mps 749 mmHg 89%
    04:00 +8°C° 0.1 mm 6 mps 750 mmHg 89%
    05:00 +8°C° 0.1 mm 6 mps 750 mmHg 89%
    06:00 +8°C° 0.1 mm 5 mps 751 mmHg 89%
    07:00 +8°C° 0 mm 5 mps 752 mmHg 89%
    08:00 +7°C° 0 mm 5 mps 752 mmHg 90%
    09:00 +7°C° 0 mm 5 mps 753 mmHg 90%
    10:00 +8°C° 0 mm 6 mps 753 mmHg 86%
    11:00 +9°C° 0 mm 6 mps 754 mmHg 82%
    12:00 +10°C° 0 mm 7 mps 754 mmHg 77%
    13:00 +10°C° 0 mm 6 mps 754 mmHg 79%
    14:00 +10°C° 0 mm 6 mps 754 mmHg 81%
    15:00 +10°C° 0 mm 5 mps 754 mmHg 82%
    16:00 +10°C° 0 mm 5 mps 754 mmHg 86%
    17:00 +9°C° 0 mm 5 mps 754 mmHg 90%
    18:00 +8°C° 0 mm 5 mps 754 mmHg 93%
    19:00 +9°C° 0 mm 6 mps 753 mmHg 93%
    20:00 +9°C° 0 mm 6 mps 753 mmHg 92%
    21:00 +9°C° 0 mm 7 mps 753 mmHg 92%
    22:00 +10°C° 0.1 mm 7 mps 752 mmHg 92%
    23:00 +10°C° 0.1 mm 8 mps 752 mmHg 91%
    Show more